| time (UTC) | temp C | wind direction | speed KPH | gust KPH | rain 1hr cm | rain 24hr cm | rain mn cm | humidity % | barometer mb |
| 20260506203047 | 15 | 258 | 0.0 | 8.0 | 0.00 | 0.86 | 0.86 | 81 | 1009.5 |
| 20260506201550 | 15 | 0 | 1.6 | 12.9 | 0.00 | 0.86 | 0.86 | 80 | 1009.1 |
| 20260506200048 | 15 | 287 | 9.7 | 17.7 | 0.00 | 0.86 | 0.86 | 79 | 1008.7 |
| 20260506194550 | 15 | 123 | 6.4 | 14.5 | 0.00 | 0.86 | 0.86 | 78 | 1008.2 |
| 20260506193045 | 15 | 125 | 6.4 | 14.5 | 0.00 | 0.86 | 0.86 | 77 | 1008.1 |
| 20260506191551 | 15 | 0 | 0.0 | 17.7 | 0.00 | 0.86 | 0.86 | 76 | 1007.9 |
| 20260506190046 | 16 | 156 | 4.8 | 27.4 | 0.00 | 0.86 | 0.86 | 76 | 1007.6 |
| 20260506184605 | 16 | 145 | 3.2 | 9.7 | 0.00 | 0.86 | 0.86 | 78 | 1007.7 |
| 20260506183048 | 16 | 59 | 4.8 | 11.3 | 0.00 | 0.86 | 0.86 | 79 | 1007.3 |
| 20260506181551 | 16 | 9 | 6.4 | 11.3 | 0.00 | 0.86 | 0.86 | 78 | 1006.9 |
| 20260506180058 | 16 | 92 | 8.0 | 19.3 | 0.15 | 0.86 | 0.86 | 77 | 1006.6 |
| 20260506174547 | 16 | 355 | 9.7 | 32.2 | 0.38 | 0.86 | 0.86 | 80 | 1006.5 |
| 20260506173050 | 16 | 139 | 16.1 | 29.0 | 0.38 | 0.86 | 0.86 | 77 | 1005.8 |
| 20260506171557 | 16 | 126 | 14.5 | 35.4 | 0.38 | 0.86 | 0.86 | 78 | 1005.8 |
| 20260506170053 | 16 | 130 | 16.1 | 37.0 | 0.20 | 0.69 | 0.69 | 78 | 1005.6 |
| 20260506164548 | 18 | 128 | 19.3 | 30.6 | 0.03 | 0.46 | 0.46 | 71 | 1005.3 |
| 20260506163049 | 18 | 107 | 12.9 | 32.2 | 0.08 | 0.46 | 0.46 | 70 | 1005.3 |
| 20260506161546 | 18 | 121 | 19.3 | 32.2 | 0.18 | 0.46 | 0.46 | 70 | 1005.4 |
| 20260506160108 | 18 | 103 | 20.9 | 33.8 | 0.41 | 0.46 | 0.46 | 72 | 1005.3 |
| 20260506154551 | 18 | 125 | 19.3 | 27.4 | 0.36 | 0.43 | 0.43 | 73 | 1005.2 |
| 20260506153046 | 18 | 136 | 16.1 | 30.6 | 0.33 | 0.38 | 0.38 | 72 | 1005.5 |
| 20260506151545 | 17 | 132 | 11.3 | 17.7 | 0.20 | 0.28 | 0.28 | 71 | 1005.8 |
| 20260506150054 | 18 | 128 | 12.9 | 22.5 | 0.00 | 0.05 | 0.05 | 65 | 1005.6 |
| 20260506144559 | 19 | 150 | 11.3 | 24.1 | 0.00 | 0.05 | 0.05 | 62 | 1005.3 |
| 20260506143050 | 20 | 126 | 14.5 | 30.6 | 0.00 | 0.05 | 0.05 | 61 | 1005.4 |
| 20260506141547 | 20 | 101 | 16.1 | 27.4 | 0.00 | 0.05 | 0.05 | 61 | 1005.6 |
| 20260506140050 | 20 | 103 | 14.5 | 24.1 | 0.00 | 0.05 | 0.05 | 62 | 1005.6 |
| 20260506134549 | 20 | 171 | 12.9 | 24.1 | 0.00 | 0.05 | 0.05 | 60 | 1005.8 |
| 20260506133050 | 19 | 115 | 12.9 | 30.6 | 0.00 | 0.05 | 0.05 | 64 | 1005.9 |
| 20260506131557 | 20 | 90 | 8.0 | 17.7 | 0.00 | 0.05 | 0.05 | 64 | 1005.9 |
| 20260506130049 | 20 | 34 | 6.4 | 20.9 | 0.00 | 0.05 | 0.05 | 63 | 1006.0 |
| 20260506124547 | 20 | 71 | 12.9 | 22.5 | 0.00 | 0.05 | 0.05 | 63 | 1006.1 |
| 20260506123052 | 19 | 338 | 14.5 | 20.9 | 0.00 | 0.05 | 0.05 | 71 | 1006.1 |
| 20260506121547 | 19 | 17 | 12.9 | 20.9 | 0.00 | 0.05 | 0.05 | 70 | 1006.1 |
| 20260506120052 | 19 | 10 | 11.3 | 20.9 | 0.00 | 0.05 | 0.05 | 71 | 1006.2 |
| 20260506114551 | 18 | 11 | 6.4 | 17.7 | 0.00 | 0.05 | 0.05 | 72 | 1006.4 |
| 20260506113048 | 18 | 5 | 4.8 | 17.7 | 0.00 | 0.05 | 0.05 | 75 | 1006.6 |
| 20260506111543 | 17 | 332 | 4.8 | 16.1 | 0.00 | 0.05 | 0.05 | 74 | 1006.6 |
| 20260506110048 | 17 | 316 | 1.6 | 12.9 | 0.00 | 0.05 | 0.05 | 76 | 1006.8 |
| 20260506104551 | 17 | 347 | 8.0 | 14.5 | 0.00 | 0.08 | 0.05 | 77 | 1007.0 |
| 20260506103052 | 17 | 41 | 4.8 | 11.3 | 0.00 | 0.08 | 0.05 | 77 | 1007.1 |
| 20260506101550 | 16 | 28 | 6.4 | 12.9 | 0.00 | 0.08 | 0.05 | 80 | 1007.1 |
| 20260506100100 | 17 | 10 | 3.2 | 9.7 | 0.00 | 0.08 | 0.05 | 77 | 1007.4 |
| 20260506094549 | 16 | 0 | 1.6 | 9.7 | 0.00 | 0.08 | 0.05 | 78 | 1007.4 |
| 20260506093045 | 15 | 9 | 3.2 | 12.9 | 0.00 | 0.08 | 0.05 | 82 | 1007.6 |
| 20260506091552 | 15 | 312 | 3.2 | 16.1 | 0.00 | 0.08 | 0.05 | 83 | 1007.7 |
| 20260506090044 | 15 | 311 | 4.8 | 8.0 | 0.00 | 0.08 | 0.05 | 80 | 1007.6 |
| 20260506084543 | 15 | 90 | 3.2 | 6.4 | 0.00 | 0.08 | 0.05 | 82 | 1007.6 |
| 20260506083045 | 14 | 0 | 0.0 | 6.4 | 0.00 | 0.08 | 0.05 | 87 | 1007.8 |
| 20260506081545 | 14 | 0 | 0.0 | 0.0 | 0.00 | 0.08 | 0.05 | 88 | 1007.9 |
| 20260506073050 | 13 | 0 | 0.0 | 3.2 | 0.00 | 0.08 | 0.05 | 93 | 1008.0 |
| 20260506071558 | 12 | 355 | 0.0 | 3.2 | 0.00 | 0.08 | 0.05 | 94 | 1007.8 |
| 20260506061549 | 12 | 327 | 0.0 | 4.8 | 0.00 | 0.08 | 0.05 | 94 | 1008.0 |
| 20260506044546 | 12 | 73 | 3.2 | 9.7 | 0.00 | 0.30 | 0.03 | 94 | 1008.6 |
| 20260506043046 | 12 | 111 | 3.2 | 11.3 | 0.00 | 0.30 | 0.03 | 95 | 1008.7 |
| 20260506041550 | 12 | 36 | 1.6 | 6.4 | 0.00 | 0.30 | 0.03 | 95 | 1008.8 |
| 20260506040055 | 12 | 0 | 0.0 | 4.8 | 0.00 | 0.30 | 0.03 | 95 | 1009.0 |
| 20260506034545 | 12 | 111 | 1.6 | 4.8 | 0.00 | 0.86 | 0.03 | 95 | 1009.0 |
| 20260506033047 | 12 | 42 | 1.6 | 4.8 | 0.00 | 0.86 | 0.03 | 95 | 1009.0 |
| 20260506031550 | 12 | 0 | 0.0 | 0.0 | 0.00 | 0.86 | 0.03 | 95 | 1009.2 |
| 20260506030100 | 12 | 0 | 0.0 | 0.0 | 0.00 | 0.86 | 0.03 | 94 | 1009.6 |
| 20260506024556 | 12 | 0 | 0.0 | 0.0 | 0.00 | 1.07 | 0.03 | 94 | 1009.6 |
| 20260506023044 | 12 | 0 | 0.0 | 1.6 | 0.00 | 1.07 | 0.03 | 94 | 1009.7 |
| 20260506021600 | 12 | 104 | 3.2 | 6.4 | 0.00 | 1.07 | 0.03 | 94 | 1010.0 |
| 20260506020051 | 12 | 122 | 4.8 | 12.9 | 0.00 | 1.07 | 0.03 | 94 | 1010.0 |
| 20260506014558 | 12 | 88 | 1.6 | 6.4 | 0.03 | 1.14 | 0.03 | 94 | 1009.9 |
| 20260506013054 | 12 | 0 | 0.0 | 0.0 | 0.03 | 1.14 | 0.03 | 94 | 1010.0 |
| 20260506011609 | 12 | 0 | 0.0 | 0.0 | 0.03 | 1.14 | 0.03 | 94 | 1010.3 |
| 20260506010053 | 12 | 0 | 0.0 | 0.0 | 0.00 | 1.12 | 0.00 | 94 | 1010.6 |
| 20260506004550 | 12 | 0 | 0.0 | 0.0 | 0.00 | 1.50 | 0.00 | 94 | 1011.1 |
| 20260506003049 | 12 | 0 | 0.0 | 0.0 | 0.00 | 1.50 | 0.00 | 94 | 1011.2 |
| 20260506001546 | 12 | 0 | 0.0 | 0.0 | 0.00 | 1.50 | 0.00 | 94 | 1011.5 |
| 20260506000047 | 12 | 0 | 0.0 | 0.0 | 0.00 | 1.50 | 0.00 | 94 | 1011.8 |
| 20260505234544 | 12 | 0 | 0.0 | 0.0 | 0.00 | 1.63 | 0.00 | 94 | 1012.0 |
| 20260505233057 | 12 | 0 | 0.0 | 4.8 | 0.00 | 1.63 | 0.00 | 94 | 1012.1 |
| 20260505231549 | 12 | 0 | 0.0 | 3.2 | 0.00 | 1.63 | 0.00 | 94 | 1012.0 |
| 20260505230051 | 12 | 0 | 0.0 | 0.0 | 0.00 | 1.63 | 0.00 | 93 | 1011.9 |
| 20260505224547 | 12 | 0 | 1.6 | 3.2 | 0.00 | 1.68 | 0.00 | 93 | 1012.1 |
| 20260505223050 | 12 | 0 | 0.0 | 4.8 | 0.00 | 1.68 | 0.00 | 93 | 1012.4 |
| 20260505221555 | 12 | 0 | 0.0 | 0.0 | 0.00 | 1.68 | 0.00 | 93 | 1012.4 |
| 20260505220050 | 12 | 0 | 0.0 | 4.8 | 0.00 | 1.68 | 0.00 | 93 | 1012.3 |
| 20260505214548 | 12 | 0 | 0.0 | 4.8 | 0.00 | 1.68 | 1.68 | 92 | 1012.6 |
| 20260505213048 | 12 | 0 | 0.0 | 4.8 | 0.00 | 1.68 | 1.68 | 92 | 1012.6 |
| 20260505211552 | 12 | 0 | 1.6 | 6.4 | 0.00 | 1.68 | 1.68 | 91 | 1012.7 |
| 20260505210049 | 13 | 0 | 0.0 | 0.0 | 0.00 | 1.68 | 1.68 | 91 | 1012.7 |
| 20260505204548 | 13 | 0 | 0.0 | 0.0 | 0.00 | 1.68 | 1.68 | 91 | 1012.9 |